TimeMDT,TemperatureF,Dew PointF,Humidity,Sea Level PressureIn,VisibilityMPH,Wind Direction,Wind SpeedMPH,Gust SpeedMPH,PrecipitationIn,Events,Conditions,WindDirDegrees,DateUTC
12:53 AM,51.1,33.1,50,29.96,10.0,SE,10.4,-,N/A,,Clear,140,2012-10-16 06:53:00
1:53 AM,50.0,34.0,54,29.95,10.0,SE,5.8,-,N/A,,Clear,130,2012-10-16 07:53:00
2:53 AM,44.1,35.1,71,29.97,10.0,NNE,3.5,-,N/A,,Clear,20,2012-10-16 08:53:00
3:53 AM,44.1,34.0,68,29.96,10.0,NNE,5.8,-,N/A,,Clear,30,2012-10-16 09:53:00
4:53 AM,39.9,33.1,77,29.96,10.0,WSW,3.5,-,N/A,,Clear,250,2012-10-16 10:53:00
5:53 AM,41.0,34.0,76,29.97,10.0,North,3.5,-,N/A,,Clear,350,2012-10-16 11:53:00
6:53 AM,37.0,33.1,86,29.99,10.0,South,5.8,-,N/A,,Clear,190,2012-10-16 12:53:00
7:53 AM,37.9,33.1,83,30.00,10.0,SW,3.5,-,N/A,,Clear,230,2012-10-16 13:53:00
8:53 AM,46.0,36.0,68,30.00,10.0,Calm,Calm,-,N/A,,Clear,0,2012-10-16 14:53:00
9:53 AM,54.0,41.0,62,29.98,10.0,NNW,4.6,-,N/A,,Clear,330,2012-10-16 15:53:00
10:53 AM,60.1,39.0,46,29.95,10.0,Calm,Calm,-,N/A,,Clear,0,2012-10-16 16:53:00
11:53 AM,68.0,36.0,31,29.92,10.0,Calm,Calm,-,N/A,,Clear,0,2012-10-16 17:53:00
12:53 PM,72.0,35.1,26,29.88,10.0,WSW,5.8,-,N/A,,Clear,240,2012-10-16 18:53:00
1:53 PM,75.0,35.1,23,29.83,10.0,SSW,10.4,-,N/A,,Clear,200,2012-10-16 19:53:00
2:53 PM,73.9,35.1,24,29.81,10.0,SSW,9.2,-,N/A,,Clear,210,2012-10-16 20:53:00
3:53 PM,73.9,37.9,27,29.79,10.0,SSW,13.8,19.6,N/A,,Clear,210,2012-10-16 21:53:00
4:53 PM,72.0,39.0,30,29.79,10.0,SSW,13.8,21.9,N/A,,Clear,210,2012-10-16 22:53:00
5:53 PM,69.1,41.0,36,29.80,10.0,SSW,10.4,-,N/A,,Clear,210,2012-10-16 23:53:00
6:53 PM,64.0,41.0,43,29.83,10.0,SSW,9.2,-,N/A,,Clear,200,2012-10-17 00:53:00
7:53 PM,60.1,39.9,47,29.86,10.0,SSW,6.9,-,N/A,,Clear,210,2012-10-17 01:53:00
8:53 PM,62.1,37.0,39,29.84,10.0,South,6.9,-,N/A,,Clear,180,2012-10-17 02:53:00
9:53 PM,57.9,37.9,47,29.83,10.0,South,6.9,-,N/A,,Clear,190,2012-10-17 03:53:00
10:53 PM,57.9,37.9,47,29.86,10.0,North,5.8,-,N/A,,Clear,10,2012-10-17 04:53:00
11:53 PM,55.9,39.0,53,29.86,10.0,Calm,Calm,-,N/A,,Clear,0,2012-10-17 05:53:00